Location: *
(38.4303°S, 157.0822°W)
Time: 06:04:10
(UTC+00:00)

DMSP B5D2-2 - Pass Details

Date: 09 August 2024
Orbit: 787 x 802 km, 98.3° (Epoch: 14 September)

Event Time Altitude Azimuth Distance (km) Brightness Sun altitude
Rises 16:34:11 0° 188° (S) 3,348 7.1 -9.5°
Reaches altitude 10° 16:37:40 10° 211° (SSW) 2,405 6.2 -8.9°
Maximum altitude 16:40:19 14° 241° (WSW) 2,121 5.7 -8.4°
Drops below altitude 10° 16:42:57 10° 272° (W) 2,387 5.9 -7.8°
Enters shadow 16:45:47 - 292° (WNW) 3,113 6.7 -7.3°
